Location: Narrabri
(30.3170°S, 149.7830°E)
Time: 19:04:21
(UTC+11:00)

Tiangong 2 - Pass Details

Date: 12 October 2017
Orbit: 388 x 391 km, 42.8° (Epoch: 22 October)

Event Time Altitude Azimuth Distance (km) Brightness Sun altitude
Rises 19:32:07 0° 227° (SW) 2,298 6.1 -5.7°
Reaches altitude 10° 19:36:00 10° 180° (S) 1,439 4.1 -6.6°
Maximum altitude 19:36:27 10° 172° (S) 1,426 4.0 -6.7°
Drops below altitude 10° 19:36:55 10° 164° (SSE) 1,438 3.9 -6.8°
Enters shadow 19:40:04 - 122° (ESE) 2,070 4.3 -7.4°
